GFSMA_500_rhum_153.txt.gz
RH
36 30 28 28 31 31 30 31 34 35 33 30 33 31 27 24 22 19 17 14 18 15 15 13 14 17 16 14 16 28 37 46 50 49 36 16 34 23 18 39 70 95 97
35 31 30 30 31 28 28 27 28 31 34 34 30 23 17 14 15 16 16 15 14 14 11 12 11 10 8 8 7 6 6 11 12 14 65 28 53 89 25 18 40 81 94
36 34 32 31 32 32 29 25 22 22 23 22 19 16 14 14 14 15 15 13 11 9 10 10 8 8 7 6 6 5 5 8 13 20 33 22 22 24 22 36 24 46 91
34 33 30 27 26 25 23 21 20 20 20 18 16 15 15 15 16 15 13 11 11 10 9 9 8 7 7 7 7 8 8 7 6 12 12 9 30 41 20 20 42 42 56
31 26 24 24 24 22 20 20 21 20 20 18 17 16 17 16 16 14 13 12 11 11 9 9 9 9 10 11 9 8 8 8 8 7 10 16 8 14 33 30 34 45 54
36 29 24 22 22 20 21 21 21 20 19 18 17 17 18 18 17 16 15 14 14 13 12 10 9 9 10 10 12 11 11 12 11 10 9 8 10 7 13 13 27 28 52
43 35 28 23 22 22 21 21 21 21 21 21 21 20 19 19 17 18 18 19 20 20 19 20 20 22 22 21 20 19 19 17 19 18 18 13 8 11 8 10 8 21 23
51 46 36 30 27 26 26 26 26 25 25 24 23 23 22 23 23 23 24 25 25 26 28 31 33 34 26 23 25 26 28 25 25 23 19 14 11 7 8 20 25 15 14
50 45 40 35 31 30 30 30 31 32 33 33 34 34 33 32 34 34 35 38 38 44 42 34 31 29 29 29 26 21 18 18 19 21 16 10 10 10 12 16 18 16 30
56 49 42 37 35 38 39 39 39 39 40 41 43 45 46 46 50 50 43 39 36 35 38 35 31 29 24 17 11 8 7 6 6 6 7 12 14 15 16 18 19 24 44
62 56 51 45 42 43 44 43 42 42 43 44 46 48 50 46 46 42 42 41 40 36 30 24 19 13 10 7 5 4 4 4 4 4 6 10 23 48 44 44 28 16 36
72 69 63 56 48 49 50 48 48 54 57 54 51 49 45 41 37 38 34 27 22 16 16 12 8 7 6 5 4 7 10 11 12 8 22 35 27 28 62 46 44 42 42
77 73 65 58 56 58 61 59 56 63 68 58 49 47 43 41 32 27 20 14 11 9 7 6 7 6 8 12 18 20 18 26 26 17 30 39 68 43 42 28 37 47 42
76 74 72 69 66 76 80 69 71 72 62 55 48 40 17 10 6 7 7 8 9 9 8 8 6 8 15 23 26 26 14 23 28 47 49 44 46 100 53 57 63 53 58
79 84 86 76 74 86 93 96 76 70 62 47 30 12 7 8 8 6 11 14 11 10 8 6 8 16 21 28 30 29 15 32 44 44 45 45 49 69 42 39 64 71 76
96 100 94 87 95 98 97 89 68 62 51 28 13 10 18 9 9 10 12 16 12 7 8 8 10 18 29 45 60 42 22 37 36 34 41 40 35 71 72 98 48 75 88
99 99 100 100 99 98 94 68 60 49 25 14 14 15 14 8 10 16 14 12 9 10 10 11 16 34 49 58 71 77 54 34 35 29 30 31 30 24 23 46 64 42 66
100 98 99 99 100 100 89 72 38 23 14 14 17 26 16 24 25 17 14 12 15 19 30 32 39 50 63 67 75 98 100 93 40 35 30 27 23 23 20 22 62 100 58
97 100 100 100 98 97 91 41 33 15 15 29 26 25 37 32 19 16 15 19 40 56 65 60 61 66 68 79 85 97 100 100 89 42 34 28 24 22 24 18 26 90 73
99 98 100 100 99 96 48 36 24 18 20 33 38 36 44 23 18 17 19 35 62 68 76 76 84 92 92 100 95 93 100 100 100 94 71 49 38 34 27 21 24 31 43
100 100 100 100 99 83 49 30 27 43 43 48 51 46 32 21 20 21 23 41 66 72 85 95 98 100 100 100 100 100 100 100 100 100 100 97 60 35 25 18 27 34 41
100 100 100 98 99 87 61 39 39 61 61 66 65 44 23 26 31 24 24 46 68 59 85 94 81 90 100 99 92 100 100 100 100 100 100 100 100 100 58 43 34 36 49
100 100 100 100 100 96 60 54 67 80 78 79 56 37 17 38 37 30 30 43 57 36 73 68 80 67 40 93 100 100 95 77 98 100 100 100 100 100 100 100 79 88 100
100 100 100 100 100 88 80 86 90 94 79 61 47 21 29 45 43 42 46 40 34 25 52 89 37 46 75 25 53 99 100 98 44 62 94 98 100 97 86 93 100 86 77
100 100 100 100 100 100 100 100 90 71 66 57 30 22 48 55 55 59 55 55 36 20 22 72 46 27 88 80 36 25 66 99 100 94 78 85 59 91 64 54 48 67 68
100 100 100 100 100 100 77 62 53 55 60 38 28 37 62 64 63 62 55 39 48 33 24 24 18 26 39 16 23 78 51 24 33 56 76 83 94 96 90 70 39 22 17

GFSMA_500_rhum_156.txt.gz
RH
49 51 47 39 33 29 28 29 30 30 30 32 36 35 32 35 35 28 20 18 18 16 16 16 15 15 14 12 12 11 10 11 17 19 13 13 12 28 25 46 41 16 27
46 51 44 38 33 30 30 31 30 27 28 26 29 33 35 34 30 22 17 13 12 14 15 15 12 10 10 10 9 8 7 6 6 5 8 22 34 56 29 23 26 20 26
47 51 43 36 34 32 30 32 33 30 27 23 22 23 24 23 20 17 15 15 13 14 14 12 10 10 9 9 8 8 7 7 7 8 8 8 7 14 33 38 48 39 24
50 54 41 35 32 31 29 27 27 24 22 20 20 21 20 19 18 16 16 16 14 14 14 13 11 11 9 8 8 8 9 11 12 11 9 8 10 14 31 14 28 48 40
52 55 46 39 30 26 27 26 24 21 20 20 20 20 20 19 18 16 17 16 18 16 15 14 14 14 14 12 10 9 10 12 13 13 15 14 13 13 15 17 12 10 11
56 62 55 44 35 29 25 23 23 22 22 20 21 20 20 20 18 18 18 18 18 18 18 17 18 18 19 19 20 20 21 22 23 24 23 22 23 23 24 25 20 19 18
54 54 54 50 47 42 32 27 25 24 24 23 23 23 23 23 22 22 22 21 21 22 22 24 26 26 26 27 28 29 32 33 33 30 29 28 29 28 25 24 29 22 22
54 47 47 48 48 45 41 37 33 31 30 30 30 29 28 29 30 30 30 32 34 34 32 34 37 38 34 34 29 28 28 27 25 25 24 23 22 22 23 22 20 22 17
56 49 48 50 50 48 43 39 35 33 34 35 36 37 37 35 37 40 37 38 42 46 42 36 33 32 31 27 19 19 18 18 22 27 27 26 22 21 15 17 21 22 17
62 54 52 53 56 56 51 47 44 41 40 43 44 42 42 43 43 42 43 44 45 41 38 39 34 29 24 24 23 22 19 20 19 17 18 17 12 11 7 6 10 13 19
67 67 60 54 61 70 69 64 58 52 47 47 48 48 49 58 60 58 52 46 43 40 36 33 28 25 23 22 19 14 10 8 7 7 7 7 6 5 5 6 5 7 9
66 69 70 65 66 74 77 75 67 59 54 56 65 62 60 66 61 54 48 32 20 17 17 13 11 10 9 8 5 4 4 4 5 5 5 5 5 5 6 6 17 29 14
72 71 72 73 71 72 76 75 71 69 65 68 81 86 75 66 55 24 7 6 8 8 10 7 5 4 3 3 5 5 5 5 9 14 14 14 14 16 18 26 19 41 49
96 95 82 76 68 70 77 81 82 84 79 82 89 90 76 75 38 9 15 6 5 7 7 5 4 4 5 5 6 6 8 18 21 23 27 28 24 19 28 24 28 49 76
100 97 100 98 77 81 86 91 98 97 96 98 92 80 67 41 18 20 10 8 8 6 5 4 4 4 5 7 7 10 17 23 27 33 34 24 16 21 23 25 32 70 100
100 100 100 100 96 96 94 98 98 96 99 100 88 69 47 18 15 7 8 9 7 6 5 6 6 6 9 10 22 26 32 49 47 52 40 20 36 40 44 49 51 54 91
99 98 98 99 98 97 91 99 96 98 100 98 85 53 27 18 12 11 11 9 9 8 8 7 8 14 18 37 53 48 54 66 68 74 60 27 39 36 36 45 49 49 100
98 100 99 98 98 95 100 98 100 99 100 98 75 36 14 13 13 11 12 10 12 11 7 9 14 39 41 49 58 61 61 79 89 93 92 55 35 32 33 39 42 48 83
100 100 100 98 98 98 100 99 100 100 100 96 53 20 16 19 26 18 16 16 18 10 8 11 37 67 65 62 73 76 62 76 86 99 95 90 38 35 31 30 30 38 64
100 99 100 100 96 100 100 100 100 100 100 81 30 18 25 49 30 39 35 27 16 10 12 19 61 78 86 77 80 86 92 85 97 100 100 100 83 46 37 32 27 21 19
100 100 100 99 100 100 100 100 100 100 97 42 32 33 56 52 57 56 33 21 11 17 16 36 63 76 86 86 91 92 97 100 100 100 100 100 100 98 78 51 34 26 22
100 100 100 100 100 100 100 100 100 100 96 71 55 42 54 73 60 42 29 12 18 23 19 39 50 69 86 65 80 100 95 80 100 100 100 100 100 100 100 100 80 56 52
100 100 100 100 100 100 100 100 100 100 100 77 58 71 71 64 54 37 16 15 25 28 27 36 41 61 54 78 51 68 100 86 63 99 100 100 100 100 100 100 100 100 90
100 100 100 100 100 100 100 100 100 99 96 82 72 69 55 48 44 25 16 21 34 39 36 40 30 48 80 49 88 34 46 100 94 83 66 96 98 98 98 99 100 100 100
100 100 100 100 100 100 100 100 100 100 100 92 67 54 43 48 31 23 20 33 45 48 46 43 22 21 63 50 80 57 80 50 80 100 100 100 87 83 86 93 80 81 100
100 100 100 100 100 100 100 100 100 100 83 51 46 47 45 31 25 29 35 53 54 57 39 41 36 34 30 28 33 33 29 35 92 65 45 82 98 100 100 96 100 70 50

GFSMA_500_rhum_162.txt.gz
RH
21 18 23 50 62 57 51 49 49 41 37 33 31 36 36 35 34 32 35 38 37 36 39 34 25 18 15 12 11 11 10 9 9 8 12 34 35 31 32 21 16 19 31
19 18 29 53 58 54 53 51 47 38 35 33 32 33 33 30 29 30 30 34 39 40 38 32 20 14 13 14 14 13 12 10 9 9 9 8 8 21 41 47 61 68 49
19 19 33 44 51 58 55 51 47 38 36 35 33 33 34 32 30 28 27 27 28 30 28 23 18 17 16 16 15 14 13 12 11 10 10 9 8 8 8 10 12 14 42
20 21 31 48 53 61 62 57 51 39 33 32 30 29 28 27 26 23 22 22 22 22 21 20 20 20 18 17 17 16 15 14 14 14 14 13 13 12 12 12 14 16 21
23 26 40 55 55 69 65 64 63 45 33 28 27 27 25 24 23 21 21 21 21 21 21 22 22 22 20 19 19 18 18 18 17 18 18 19 21 22 22 21 22 24 28
26 37 50 57 59 73 67 60 58 48 38 33 30 26 25 24 22 22 22 22 22 22 22 22 22 24 23 22 22 21 21 22 24 26 28 29 30 29 28 27 29 32 33
35 51 56 63 73 75 73 56 58 57 51 47 43 37 31 28 27 28 28 27 27 26 26 27 27 27 27 27 27 30 32 34 34 35 35 36 36 35 34 32 30 29 27
51 57 61 71 71 67 66 68 54 54 56 53 48 45 41 37 35 34 34 33 32 33 34 35 37 39 40 40 41 43 43 40 40 40 39 39 37 34 32 30 28 26 24
60 62 66 72 72 68 60 61 67 58 55 56 56 53 47 43 42 43 44 44 43 44 44 46 46 46 46 46 47 50 52 50 47 43 41 39 36 34 30 26 23 22 22
69 74 69 77 77 72 72 65 62 65 63 59 57 62 68 68 67 62 58 55 52 50 51 52 54 55 57 58 59 56 41 38 31 34 22 20 22 22 22 19 15 15 15
72 74 80 81 85 82 77 80 72 66 68 70 72 68 70 72 75 74 72 66 62 61 63 69 73 74 70 65 59 51 26 24 12 8 6 8 11 14 13 12 11 8 5
86 83 82 90 90 92 89 84 83 81 80 75 78 79 79 74 70 74 83 84 84 84 82 75 71 69 70 57 38 27 19 15 12 11 11 8 8 8 7 4 3 2 2
87 92 100 98 99 99 98 94 87 85 87 89 87 94 98 94 89 88 87 83 81 73 75 81 76 75 48 32 35 12 12 12 18 14 8 4 3 3 2 2 3 4 4
78 83 98 97 95 98 100 100 97 92 95 98 92 97 100 98 96 96 94 88 75 72 80 87 76 58 44 25 9 10 11 24 17 8 4 2 2 2 3 5 11 13 15
72 84 86 86 92 97 98 99 100 99 100 100 99 95 93 98 99 98 98 94 100 93 92 87 74 31 47 10 11 8 10 15 10 5 4 3 2 4 6 11 20 27 27
17 25 50 73 70 85 98 95 98 98 100 99 99 100 99 100 98 100 100 99 100 95 97 98 63 45 19 21 12 7 10 8 6 4 3 3 6 15 19 30 42 47 50
23 16 20 62 75 93 98 100 98 98 98 100 100 100 100 100 98 99 100 100 100 100 100 100 75 61 18 34 9 8 6 6 4 4 5 5 25 33 40 50 50 61 67
25 23 11 11 14 20 80 83 77 100 100 100 99 100 100 100 100 99 100 97 100 100 100 100 86 39 45 18 9 8 7 5 4 6 8 23 36 47 64 63 60 67 73
26 26 20 16 13 11 14 13 11 42 74 99 100 100 100 100 100 100 100 98 100 100 100 90 53 38 25 16 11 10 8 6 6 9 21 46 41 55 71 65 73 63 80
10 8 11 12 14 13 12 10 21 42 78 99 99 100 100 100 100 100 100 100 100 100 99 91 59 30 29 17 14 14 10 9 11 26 51 58 48 60 76 83 81 75 62
10 8 8 10 12 23 13 12 71 82 73 98 100 94 100 100 99 100 100 100 100 100 100 96 47 41 50 17 18 15 12 13 20 52 64 62 78 69 79 91 91 99 58
35 48 29 19 35 90 48 23 37 100 100 100 100 100 99 98 100 100 100 100 100 100 100 64 60 64 22 20 20 15 17 23 27 50 67 69 78 90 91 90 100 100 100
70 39 48 59 75 59 100 100 100 94 100 100 100 97 98 100 100 100 100 100 100 100 96 92 88 31 23 21 18 17 28 32 42 58 72 78 77 90 92 100 100 100 100
99 61 47 53 72 92 100 100 100 100 100 100 100 100 100 100 100 100 100 100 100 100 100 76 51 28 24 20 18 31 38 36 49 62 58 68 78 87 91 87 89 98 100
100 100 75 70 82 100 100 100 100 100 100 98 100 99 100 100 100 100 100 100 100 92 80 66 32 28 23 20 35 45 42 39 36 30 35 46 65 82 91 93 95 98 94
100 100 100 95 68 91 100 100 100 100 100 100 100 100 100 100 100 100 100 100 89 91 55 36 30 27 25 37 56 49 43 50 37 35 36 42 70 83 70 90 96 92 83

GFSMA_500_rhum_165.txt.gz
RH
28 28 26 25 20 24 51 57 51 56 53 50 43 44 47 34 35 36 36 36 32 36 41 40 36 39 34 25 17 14 12 12 11 10 9 9 10 26 39 34 39 61 69
18 21 24 23 20 25 53 54 50 59 56 48 40 38 41 48 41 34 34 34 34 35 38 39 38 40 36 27 19 18 16 14 13 12 10 10 9 9 9 11 24 36 41
21 21 23 22 20 25 43 57 55 58 60 48 40 38 37 35 35 35 35 32 29 28 27 31 37 35 29 23 19 18 17 16 15 14 12 11 10 10 9 9 8 8 10
22 21 20 20 21 25 38 57 57 64 62 55 40 35 35 34 33 35 34 33 30 26 25 26 28 28 24 20 19 18 18 18 17 15 15 14 13 13 13 14 13 12 12
24 20 19 20 25 30 50 60 69 71 64 64 48 37 32 31 30 30 29 28 27 26 27 26 25 24 22 21 20 20 20 20 20 18 18 17 17 17 18 19 20 22 24
38 28 19 22 27 46 61 67 81 76 63 62 55 39 33 31 29 28 27 28 27 26 27 26 26 25 23 23 22 22 22 22 22 22 21 21 21 21 25 28 30 30 32
37 47 23 25 34 57 65 74 84 81 73 57 57 56 50 44 38 33 30 29 28 27 26 26 27 26 26 26 27 26 26 26 25 25 27 30 33 34 37 40 39 39 38
44 33 29 28 53 65 66 76 85 83 76 70 56 53 55 52 49 45 41 39 37 36 35 34 33 33 33 34 34 36 38 39 39 39 40 44 46 46 45 44 41 39 36
49 44 39 36 55 72 76 78 81 84 83 73 72 61 55 57 57 55 51 48 46 45 45 45 46 47 47 46 46 46 45 44 43 46 52 52 53 51 49 44 44 43 38
69 73 72 66 66 74 84 90 94 91 85 84 76 72 73 65 60 63 68 71 72 70 65 62 60 57 54 54 55 65 73 76 70 63 61 55 53 37 18 23 20 12 13
80 92 89 91 86 83 85 87 92 96 96 92 83 83 72 72 76 75 71 74 76 76 75 73 71 67 67 74 80 84 78 77 67 50 53 46 24 10 12 18 18 19 16
95 78 45 57 84 95 96 97 98 97 98 96 96 89 87 85 78 75 79 79 79 75 76 93 98 95 99 99 97 96 81 64 27 18 26 10 9 14 27 23 16 12 10
99 87 40 49 68 78 87 96 99 93 96 98 96 96 92 90 93 93 94 97 97 96 98 100 98 92 95 96 92 90 67 37 16 35 8 8 20 18 22 18 13 8 3
91 67 47 49 68 74 85 87 92 100 100 98 98 98 98 96 97 98 98 97 97 97 99 100 100 93 94 92 96 86 80 20 38 9 8 16 17 22 22 10 4 3 3
90 40 31 21 15 15 17 23 38 70 86 100 99 100 99 98 94 92 89 84 82 92 99 100 100 100 94 88 94 85 70 39 28 13 25 16 18 21 10 4 3 2 2
79 67 63 49 24 16 17 18 19 28 62 93 99 99 100 100 98 95 94 90 92 98 99 100 100 99 90 95 98 95 67 45 26 34 13 19 18 7 4 3 2 2 5
74 62 33 27 21 17 18 21 21 22 22 51 95 99 100 100 99 100 99 99 98 99 100 100 99 96 94 100 100 96 74 63 32 16 20 22 10 4 3 3 3 8 24
28 27 27 24 23 23 24 26 25 22 15 22 46 93 95 69 98 100 100 100 100 100 99 100 96 97 96 100 100 100 97 60 39 18 28 14 6 4 4 4 14 28 47
21 19 18 17 16 15 16 21 26 18 13 12 11 37 30 42 92 98 100 100 98 100 100 98 99 100 100 100 100 94 68 58 29 32 17 10 8 6 6 5 32 42 51
12 8 7 6 6 6 7 8 9 14 18 16 13 12 89 74 71 96 100 100 100 97 93 98 100 100 100 100 100 96 83 35 50 21 13 11 9 9 10 18 35 58 71
6 6 6 16 26 15 14 13 11 9 10 17 24 49 34 74 87 79 100 98 96 92 96 100 100 100 100 100 100 94 64 90 25 18 15 11 11 14 20 43 59 61 84
20 46 47 52 60 44 34 28 28 24 18 17 100 100 53 100 58 92 89 78 86 99 100 100 100 100 100 100 100 99 96 36 24 18 15 14 20 23 37 53 83 84 86
9 67 84 76 88 74 72 47 51 73 77 98 100 100 94 66 96 100 77 87 100 100 100 100 100 100 99 97 100 95 50 44 22 19 18 25 33 40 49 62 77 89 96
10 9 69 84 91 88 96 60 61 100 100 99 100 99 100 100 100 98 89 98 100 100 100 100 100 100 100 100 99 85 39 25 22 25 29 37 39 43 51 60 77 96 94
13 12 27 80 97 100 100 76 98 96 96 93 99 99 100 99 100 100 100 100 98 100 100 100 100 100 100 100 65 33 30 26 32 35 42 47 43 40 48 56 79 83 90
17 15 14 54 100 100 100 100 100 100 92 95 100 100 100 100 100 100 100 100 95 100 100 100 100 99 96 49 35 32 32 42 44 49 47 51 45 28 29 43 54 41 38

GFSMA_500_rhum_168.txt.gz
RH
29 31 35 38 32 27 25 22 21 40 45 47 57 60 54 52 53 56 48 36 38 39 50 48 41 41 42 32 38 38 28 25 22 20 19 17 20 30 37 23 33 38 40
40 36 31 31 28 25 24 23 21 34 43 46 58 57 52 46 41 48 56 60 47 41 40 37 37 38 39 37 38 37 32 24 20 20 18 16 13 12 11 10 10 9 13
56 49 38 30 27 24 24 22 21 29 44 50 62 59 56 42 41 39 38 38 39 37 36 35 34 33 38 41 41 38 30 22 20 19 17 16 15 13 12 11 10 10 9
63 50 46 34 25 23 23 21 25 31 56 59 69 61 57 44 38 38 37 37 40 41 39 36 34 32 32 35 36 33 29 24 21 19 18 18 16 15 14 13 12 13 13
65 52 37 35 27 29 23 23 29 40 62 69 78 66 63 53 40 37 36 35 34 32 31 30 28 30 32 32 32 30 28 25 23 22 21 20 19 18 17 16 16 16 16
46 39 40 40 36 65 34 28 30 48 62 74 85 77 61 60 46 36 34 32 31 30 30 29 28 28 28 27 27 26 25 24 23 23 23 23 22 22 21 20 20 20 20
89 61 88 44 93 76 54 32 37 56 66 74 84 83 72 58 58 54 45 38 34 32 31 30 30 29 28 28 28 27 26 26 26 27 26 26 26 25 24 24 26 30 33
96 76 68 55 46 41 36 32 52 72 84 86 84 85 82 74 60 58 56 51 47 43 40 38 37 36 35 34 32 32 32 32 33 34 36 38 39 40 40 41 42 43 48
96 91 74 68 71 70 66 52 56 68 89 91 86 86 84 83 77 70 62 61 58 54 50 48 47 45 44 43 42 42 44 45 46 47 47 47 48 50 54 56 58 54 48
100 96 97 97 94 98 96 96 94 90 91 90 91 95 91 83 81 81 76 72 65 67 72 75 76 70 64 58 55 54 54 53 54 54 59 73 79 78 71 61 49 36 22
97 100 95 93 99 98 97 84 73 89 97 94 91 96 95 96 95 94 83 80 74 75 73 72 77 80 81 78 74 72 68 64 66 69 74 74 76 76 49 41 36 19 16
97 96 100 98 99 98 98 91 76 77 93 94 92 93 96 96 98 96 95 96 95 94 97 98 97 95 91 87 88 94 93 89 88 90 94 90 85 50 15 15 16 7 8
96 69 91 86 100 98 85 86 72 69 75 77 87 93 93 94 97 99 100 98 95 97 98 98 98 97 97 98 97 95 93 89 90 88 88 94 90 19 15 27 10 15 18
99 99 98 97 98 99 96 89 22 18 17 19 23 29 37 62 80 88 97 100 98 99 100 100 99 96 99 99 100 100 98 98 93 95 97 99 97 40 55 26 19 30 26
90 93 92 94 96 93 97 83 72 59 32 21 18 19 21 23 22 31 76 88 97 93 99 100 100 99 94 98 100 100 100 100 98 94 97 97 99 70 47 24 32 20 23
99 96 88 82 89 65 56 53 65 66 61 45 24 16 17 20 22 22 53 88 89 100 99 100 100 98 96 100 100 100 98 100 99 100 99 99 96 49 34 38 18 29 8
45 42 37 29 25 27 32 43 32 31 26 26 25 24 23 22 21 24 38 81 98 95 98 93 98 97 98 98 98 100 96 98 100 100 100 97 90 67 43 25 28 32 15
26 27 27 26 25 23 21 20 22 23 17 19 24 27 25 25 31 34 85 52 93 84 82 90 93 86 95 98 100 99 91 100 99 100 100 98 98 64 40 34 36 23 10
27 26 24 24 23 19 15 12 10 10 10 11 15 16 22 19 27 99 100 57 100 62 49 82 85 88 82 85 92 96 100 100 100 100 99 86 47 69 45 50 25 20 10
27 28 26 22 15 10 6 6 6 8 9 9 6 8 9 13 16 32 91 79 84 54 100 86 74 88 89 90 93 96 100 100 100 100 94 93 69 61 55 38 15 7 6
25 16 10 11 10 7 12 34 34 43 47 45 29 14 17 16 66 89 100 73 58 99 77 70 87 95 88 89 96 100 100 100 100 100 99 82 86 56 70 14 10 10 11
18 7 6 9 10 10 8 34 52 50 61 67 86 37 36 52 100 100 87 100 90 74 89 73 65 84 78 100 100 100 99 100 100 98 99 96 71 75 20 14 13 18 29
8 6 7 11 14 10 10 14 49 67 70 92 100 53 55 88 78 100 100 100 100 100 95 86 100 76 91 100 100 100 100 100 100 100 100 91 59 23 18 15 21 34 46
11 12 14 18 18 16 13 15 30 75 83 99 96 57 62 100 100 85 100 100 100 98 85 98 95 96 100 100 100 100 100 100 100 100 91 44 28 23 21 26 37 41 46
17 18 15 12 15 21 16 16 19 86 99 92 60 59 83 100 98 100 100 100 100 100 99 100 100 96 100 100 100 100 100 100 100 80 45 34 28 24 37 42 49 39 34
35 41 44 40 33 23 14 11 10 82 95 80 62 79 99 100 98 100 100 100 100 100 100 100 100 100 100 100 100 100 100 96 79 51 40 39 36 41 46 49 51 40 29

GFSMA_500_rhum_171.txt.gz
RH
89 82 70 63 66 69 61 52 47 39 29 22 24 40 47 60 67 71 69 79 85 70 61 66 68 63 56 53 42 45 39 44 38 31 39 61 57 60 61 58 52 47 46
100 100 91 79 79 64 46 38 34 34 28 22 24 32 47 62 65 55 48 47 53 55 48 50 46 45 45 39 42 42 36 39 39 35 28 24 23 22 18 15 15 14 12
100 100 94 82 76 61 41 30 30 30 26 21 25 36 48 66 67 62 54 56 55 55 57 44 42 41 38 37 36 39 41 42 42 38 31 27 24 21 19 17 16 13 12
99 100 95 93 69 50 46 36 38 28 23 22 28 54 58 71 67 59 44 40 40 39 40 40 40 40 39 38 35 32 37 43 42 37 31 27 25 22 19 18 16 14 13
93 94 96 92 85 50 58 74 39 41 34 26 30 52 65 79 74 61 52 41 38 37 35 36 37 38 37 34 33 33 32 33 34 33 32 29 26 22 21 21 19 17 16
86 89 95 95 95 87 85 84 43 68 39 32 34 50 63 77 84 66 59 51 39 34 33 33 33 32 32 34 34 32 32 32 31 29 28 26 25 24 23 22 23 22 21
92 94 98 98 93 98 93 76 76 65 58 34 39 58 70 81 87 84 66 59 55 49 41 35 33 32 31 31 31 31 32 31 30 29 28 27 27 26 25 26 26 25 25
97 96 97 97 98 96 96 90 83 66 72 43 48 68 80 87 89 87 83 76 62 59 55 50 46 41 37 34 32 31 30 30 30 30 29 29 28 29 30 30 31 34 36
96 96 97 97 97 95 97 97 92 85 80 68 62 67 76 89 97 99 95 89 81 76 64 62 57 50 46 44 42 40 37 36 36 36 38 38 41 42 44 45 46 45 44
96 98 98 97 98 96 97 97 100 98 98 91 91 96 93 88 95 97 99 97 96 94 85 76 69 66 66 66 65 58 52 48 48 48 48 50 51 53 53 53 55 67 75
100 94 90 91 99 98 96 96 96 97 96 86 76 86 88 92 98 98 97 98 97 98 98 95 87 82 75 70 69 72 76 78 77 73 70 69 67 66 64 63 62 65 71
89 91 83 88 94 98 100 98 97 96 92 97 90 84 77 80 86 82 91 97 96 98 97 98 98 97 95 92 93 95 96 95 92 90 88 86 86 84 82 80 84 86 84
76 79 79 76 78 86 93 97 100 98 98 82 52 43 41 32 29 27 28 32 58 94 95 98 97 96 98 98 99 100 100 100 100 99 91 87 81 77 82 81 85 87 89
68 70 62 54 52 56 72 86 94 91 88 98 92 86 73 36 28 18 19 17 16 22 40 56 88 97 96 94 97 99 99 99 100 100 96 91 79 74 81 82 88 92 91
24 31 39 53 72 88 85 84 68 65 78 82 79 79 76 74 58 44 25 18 19 20 17 22 62 99 95 94 96 95 99 98 100 99 98 90 88 78 82 82 83 92 90
30 26 23 25 34 32 29 27 27 25 25 28 32 39 45 60 59 44 36 36 24 27 22 23 32 80 94 94 92 92 94 95 99 99 98 96 92 89 81 85 90 94 87
29 25 26 28 29 29 30 29 28 27 26 25 25 27 28 28 30 32 35 26 26 31 24 31 41 80 95 98 98 80 74 79 79 85 100 96 100 96 93 92 99 92 91
34 34 33 34 32 31 29 28 27 26 25 20 16 12 11 15 21 25 27 27 28 34 46 44 61 82 100 100 100 90 75 66 79 90 96 95 95 99 98 97 98 95 96
38 39 37 34 31 28 27 26 22 19 11 6 5 5 5 6 8 10 14 17 21 29 38 37 66 83 100 100 93 73 88 77 81 92 91 95 100 100 100 100 93 47 65
40 38 35 31 29 27 19 14 13 10 8 6 6 14 30 39 32 15 11 13 36 33 80 100 100 100 95 91 92 96 100 88 87 98 100 98 100 100 100 100 97 80 58
47 39 37 34 21 16 10 6 11 10 6 6 6 17 39 43 53 58 50 25 21 100 92 71 100 97 98 70 100 100 84 100 94 100 100 100 100 100 100 100 99 97 78
50 50 52 38 17 12 8 8 15 16 8 10 10 10 44 62 62 71 71 36 31 37 98 85 85 100 97 100 100 100 100 97 94 94 100 100 100 100 100 100 100 96 72
48 63 50 31 19 14 11 13 14 13 15 16 16 11 27 73 76 100 100 51 38 61 96 100 100 100 100 100 92 100 78 96 90 100 100 100 100 100 100 100 98 53 23
61 88 56 38 34 23 20 24 28 26 26 20 15 9 11 89 100 100 86 56 58 100 62 65 100 95 100 96 99 91 100 100 100 100 100 100 100 100 100 92 56 31 23
83 60 51 70 64 39 44 43 39 28 20 17 12 9 14 99 100 100 76 67 82 90 100 86 92 100 100 100 95 89 100 100 100 100 100 100 100 100 95 70 40 32 28
100 88 90 74 66 58 53 32 16 11 10 9 9 8 22 100 81 64 68 82 100 100 100 100 100 100 100 100 100 100 100 100 100 100 100 100 100 100 89 57 41 38 34